Theta_e
320 318 315 314 313 313 315 317 322 327 331 334 335 336 336 337 337 338 339 338 336 339 350 350 351 353 353 348 348 350 357 359 357 357 353 345 346 345 346 345 346 346 346 346 339
321 319 316 314 313 313 315 317 322 328 332 334 335 335 336 336 337 338 339 337 337 352 354 354 352 354 351 352 348 351 355 355 352 352 352 345 345 345 347 345 346 349 346 344 342
321 320 317 315 314 314 315 317 322 329 333 333 334 335 335 336 336 340 338 337 338 349 348 350 353 351 351 351 353 350 354 352 353 352 353 345 344 345 347 348 346 349 349 347 344
321 320 318 316 314 314 315 318 323 329 332 332 333 333 334 334 341 338 338 339 339 351 353 350 352 349 350 351 352 356 353 352 353 352 351 347 344 346 346 345 345 346 345 346 347
321 321 319 317 315 314 315 318 324 329 330 331 332 333 333 332 336 337 339 339 345 354 348 345 351 349 353 352 353 352 352 352 350 351 349 349 348 346 346 344 345 346 347 348 348
320 321 320 317 315 314 315 317 324 328 327 330 331 332 332 334 337 337 342 346 350 351 352 345 345 346 350 352 354 349 350 349 349 350 350 349 349 347 345 346 348 348 348 347 347
320 321 320 318 315 314 315 317 323 325 326 328 330 331 332 336 337 337 342 346 353 352 352 350 348 349 352 354 353 353 350 349 349 350 350 349 351 349 345 346 348 349 348 347 344
319 321 320 318 316 314 315 317 321 323 324 327 329 331 334 336 337 339 341 345 352 352 348 348 350 352 355 351 348 350 347 354 350 350 349 350 356 348 344 345 346 348 348 348 347
319 321 320 319 316 314 314 316 319 321 323 326 328 331 334 335 336 339 340 343 348 351 345 352 353 353 351 350 352 350 354 353 352 348 350 350 354 349 345 345 345 345 345 347 348
319 321 320 318 316 314 314 315 318 320 322 324 327 329 334 336 337 338 340 341 342 343 352 352 350 352 350 352 357 354 354 351 352 349 350 351 352 349 348 346 346 345 344 345 345
319 321 320 318 316 314 314 315 321 325 324 331 333 334 336 335 338 340 339 342 349 351 353 350 352 354 351 350 349 351 353 354 351 349 350 351 352 350 349 348 347 346 345 345 345
320 321 320 318 315 314 314 319 323 322 322 326 330 332 334 335 335 339 340 345 347 350 349 349 352 347 347 347 349 351 353 353 350 349 349 351 353 349 348 350 349 349 347 346 346
321 321 320 318 315 314 314 320 321 322 320 326 329 329 332 333 335 340 342 342 345 348 349 352 350 345 348 351 352 352 353 352 351 351 349 351 352 349 349 350 350 349 348 348 348
321 320 319 317 315 314 315 319 322 320 331 335 331 334 336 337 338 338 341 343 348 352 350 351 347 348 349 351 351 350 349 349 350 352 353 348 352 351 345 349 350 351 349 348 348
320 320 319 316 314 314 318 319 325 324 342 333 333 335 336 338 341 339 340 345 347 351 349 351 349 351 350 348 348 349 342 348 351 350 349 351 352 350 344 348 347 346 348 349 349
320 320 319 315 314 317 320 325 321 333 342 335 335 337 337 339 342 345 344 345 344 345 347 348 345 344 346 345 347 342 341 342 343 350 352 342 351 348 346 348 346 345 345 345 345
320 320 317 315 316 322 326 324 333 338 333 338 338 338 340 343 343 345 347 347 349 353 352 347 342 341 343 345 339 336 342 341 343 343 344 337 349 348 345 341 344 345 345 345 344
320 319 316 315 318 324 325 328 337 334 333 334 339 340 341 344 345 345 346 349 344 348 352 352 344 342 342 344 345 339 339 339 341 337 337 342 349 344 343 337 337 340 344 345 340
319 318 315 318 324 323 325 331 338 332 331 332 341 342 344 343 346 346 346 348 348 345 353 348 344 337 339 332 339 338 340 333 335 329 334 335 340 336 340 341 340 341 343 345 341
317 315 314 322 321 321 329 329 333 327 330 331 342 341 344 345 345 345 347 344 344 341 340 344 345 334 329 329 329 335 331 336 333 338 338 334 335 335 341 339 342 342 342 344 342
314 317 318 321 322 324 331 331 329 327 328 330 338 341 342 346 346 346 346 343 342 341 339 341 343 332 330 331 331 334 334 328 329 330 338 337 335 336 336 336 337 336 341 342 342
318 326 318 322 326 320 328 326 324 327 326 328 328 340 343 344 346 345 345 342 340 340 344 336 335 333 331 326 323 328 332 331 337 337 328 331 335 329 333 337 335 333 333 337 338
326 321 317 321 329 328 325 325 325 326 325 326 326 333 339 344 346 343 340 334 338 341 343 335 337 333 334 330 326 330 331 328 328 329 337 337 336 332 333 334 335 335 334 335 333
330 325 318 321 321 325 325 325 324 324 323 324 327 331 333 340 336 336 339 329 337 338 328 329 328 335 334 336 330 333 330 331 334 337 336 335 335 334 335 336 335 334 337 338 336
328 330 322 326 324 323 324 325 327 329 326 324 328 328 330 338 336 335 334 331 329 325 326 330 335 331 331 330 326 329 331 331 333 335 335 335 334 333 335 336 334 335 341 343 347
332 335 332 332 333 330 324 331 326 330 328 330 331 331 328 334 337 338 337 335 333 329 330 328 336 331 335 333 329 331 332 333 333 333 332 333 333 333 332 332 337 340 344 347 349
329 331 330 329 328 327 328 329 329 328 330 328 328 332 335 334 332 332 331 332 333 334 335 334 336 337 338 332 333 335 335 335 334 332 332 333 334 333 335 337 338 339 345 347 349
Wind_Speed
6 4 2 4 3 4 5 5 5 5 4 4 4 4 5 6 9 10 10 4 4 5 4 4 4 2 3 3 3 2 2 2 3 5 6 8 3 3 4 12 4 1 5 13 26
6 4 2 4 3 4 5 5 5 5 5 4 5 4 6 8 11 12 7 7 4 5 3 2 7 4 2 2 2 1 2 0 1 4 3 6 4 9 4 10 3 5 5 27 27
6 4 2 4 4 5 5 6 5 6 5 5 4 5 7 9 8 1 2 11 4 4 3 2 7 3 2 3 3 2 1 0 2 4 4 2 5 6 7 6 7 9 19 27 27
5 5 3 4 4 5 5 6 6 6 6 6 4 5 7 8 2 4 3 12 6 6 2 6 7 3 3 1 2 3 3 4 2 2 2 1 9 4 9 1 3 10 18 30 27
5 5 3 4 4 5 6 6 7 7 7 4 3 4 7 5 3 1 5 11 8 7 3 2 8 3 3 3 3 3 2 5 10 5 4 6 2 3 6 1 8 16 22 25 24
5 5 3 4 5 6 7 7 7 7 6 3 4 5 6 4 3 3 6 8 7 8 7 5 3 1 4 2 3 2 8 7 2 4 2 3 4 5 3 9 16 19 22 23 23
5 5 3 4 5 6 7 7 8 7 4 4 4 6 9 7 1 6 7 5 6 4 3 7 3 1 3 2 4 3 4 1 1 2 1 2 2 1 8 14 17 17 18 20 21
5 5 3 5 6 7 7 8 7 6 4 3 5 6 5 3 3 9 8 7 5 4 6 7 5 2 2 2 1 2 1 2 1 2 1 0 1 2 10 15 16 17 17 18 20
5 5 3 5 7 7 7 7 6 5 5 4 5 5 5 4 6 7 9 6 7 7 8 8 4 3 1 2 2 3 0 4 4 6 1 3 3 1 11 14 15 17 17 18 18
5 5 4 6 8 8 7 7 6 6 5 5 8 4 4 3 3 9 9 7 3 3 2 3 3 1 1 0 3 2 1 3 6 1 8 8 14 7 12 16 16 16 16 17 18
6 6 4 7 9 9 9 6 2 3 8 5 0 1 4 3 2 8 11 8 2 0 2 3 2 2 3 4 1 1 1 4 3 3 5 7 13 10 11 16 15 15 17 20 22
6 6 6 8 10 10 10 4 5 2 5 11 17 17 16 12 3 7 14 7 4 3 1 3 2 6 3 6 6 3 5 4 4 4 5 6 9 7 9 12 14 16 17 21 22
7 7 7 9 11 12 12 6 7 8 2 4 7 9 5 7 7 14 18 9 4 4 5 5 3 5 3 3 4 5 5 2 1 3 2 8 5 4 1 6 7 13 16 17 21
8 8 9 11 9 10 12 6 3 3 2 4 5 3 7 4 3 11 19 8 4 4 3 5 4 3 4 4 6 1 4 2 3 3 2 3 3 3 1 6 7 9 13 16 18
9 10 11 13 5 13 11 6 2 5 3 2 4 3 6 4 5 4 17 6 6 2 2 4 4 5 4 2 6 4 3 3 3 4 1 1 3 0 0 6 9 11 14 15 16
10 11 12 14 13 13 10 4 6 3 3 3 4 6 6 0 2 5 8 6 1 3 3 9 4 4 3 1 4 8 4 7 5 1 1 1 4 1 4 5 7 9 11 13 13
10 13 15 15 13 11 6 10 3 3 2 4 3 4 4 2 4 4 8 8 5 2 2 6 4 3 4 4 3 2 2 2 0 1 3 2 4 4 4 7 8 9 11 11 7
11 13 15 15 16 6 14 2 2 1 3 1 2 5 6 1 2 1 4 6 4 4 4 4 4 1 4 2 2 1 2 2 3 4 3 3 3 1 4 6 13 14 11 9 8
11 14 15 15 12 7 6 2 2 4 1 1 4 5 3 2 1 3 5 4 6 11 4 1 2 3 1 3 2 4 2 2 3 1 3 0 3 10 3 4 5 10 12 15 11
12 13 14 15 9 8 2 2 3 3 3 1 7 3 7 5 5 3 2 3 3 9 0 3 3 1 3 2 8 3 6 2 1 3 5 1 4 5 8 11 8 10 18 19 13
15 10 13 12 10 4 4 4 4 7 6 4 5 3 3 5 6 5 2 2 3 5 3 5 2 1 3 5 5 1 1 4 2 3 5 7 4 3 4 8 10 16 21 19 13
9 3 14 14 3 1 2 3 2 4 2 5 2 3 7 8 6 6 5 4 4 10 6 4 2 2 3 1 1 1 2 2 4 1 1 3 5 4 5 10 11 18 20 23 17
5 6 15 5 3 2 1 3 4 3 3 4 4 5 2 5 4 6 3 1 8 10 8 8 2 3 2 3 3 3 3 3 3 2 4 5 5 2 14 14 17 17 19 16 18
4 3 4 4 1 2 2 1 3 6 5 4 2 5 4 2 1 3 2 2 4 4 3 8 3 4 6 4 1 3 5 5 5 6 11 10 16 15 13 14 19 18 16 12 15
2 2 5 5 4 3 1 1 3 3 2 2 4 2 4 4 3 2 4 3 3 7 2 3 3 3 5 6 4 7 9 6 8 14 9 18 16 17 15 13 20 17 9 11 15
3 4 4 3 3 6 2 3 1 4 2 3 3 5 2 3 3 7 5 3 1 3 2 1 2 3 5 6 9 10 11 12 13 14 15 17 16 17 20 14 17 14 9 11 13
3 5 3 1 4 4 4 2 2 2 2 5 5 2 4 2 3 1 2 5 2 1 3 2 4 4 13 4 6 12 11 12 9 8 10 10 14 12 12 14 17 15 12 13 13
Wind_Direction
357 4 337 269 224 171 180 180 181 181 184 202 232 260 276 279 289 287 278 236 204 196 181 186 165 137 35 53 52 44 72 40 41 18 338 163 138 148 107 141 154 105 138 162 158
346 354 336 268 220 178 181 176 182 182 196 213 242 271 282 301 302 288 227 191 180 164 179 247 185 148 40 30 29 5 89 27 129 317 341 167 181 160 149 158 113 101 129 157 163
337 340 328 270 222 183 180 179 180 190 205 226 251 277 305 322 322 289 215 184 154 158 158 147 164 136 23 25 7 9 18 129 178 290 302 124 151 161 147 191 208 173 152 161 168
326 329 325 273 224 186 182 180 183 197 216 235 260 291 320 320 312 340 200 185 178 174 155 143 164 156 130 72 298 283 298 264 321 6 319 183 140 175 199 172 248 181 164 167 172
315 321 324 270 222 189 183 183 190 203 224 241 274 308 317 310 296 34 138 158 171 174 113 113 173 177 131 163 204 246 282 312 298 302 184 155 200 210 193 328 151 159 164 171 176
304 312 312 266 218 192 187 189 195 209 225 243 274 301 312 286 334 162 163 151 166 150 49 54 171 84 101 170 245 315 311 296 314 54 108 131 123 167 133 151 150 160 169 177 185
292 300 291 258 211 195 190 191 200 216 223 242 278 299 295 270 290 171 166 170 170 201 31 36 59 54 134 175 336 317 335 323 51 318 72 22 179 166 162 157 159 171 174 184 192
279 287 278 252 209 195 191 194 204 217 228 251 282 304 273 253 196 179 177 178 199 247 326 334 348 31 66 316 10 34 63 220 285 294 47 227 254 203 166 170 174 181 182 192 199
268 277 263 241 204 193 192 193 203 215 230 251 277 294 278 263 234 182 178 189 225 254 324 352 54 62 39 49 57 20 309 234 295 223 258 241 265 110 182 192 196 190 192 198 209
259 268 247 229 199 188 183 185 198 222 237 262 269 295 249 359 203 185 175 194 234 293 325 24 56 88 61 193 52 16 232 213 241 236 215 244 265 255 204 206 213 207 203 209 215
250 256 232 217 192 184 178 158 193 257 234 217 219 254 160 71 118 179 186 184 138 270 326 13 292 313 279 199 245 207 280 298 254 258 240 247 263 277 214 211 221 215 215 222 228
241 242 216 208 190 182 173 162 141 86 301 248 248 257 250 257 251 196 183 176 191 255 192 256 282 351 216 202 211 256 312 319 292 309 239 334 317 320 191 220 216 223 225 232 238
234 230 207 200 187 185 179 180 175 346 298 265 237 246 250 204 202 189 185 197 230 248 245 257 283 329 225 174 213 259 250 229 298 53 252 319 311 346 19 262 239 234 234 240 237
225 216 195 190 189 184 183 185 226 303 313 179 217 231 190 182 193 197 192 173 207 301 195 262 306 300 262 279 211 330 216 213 158 187 19 335 341 291 302 271 255 237 233 234 231
216 204 190 181 180 165 176 185 299 155 212 124 151 179 169 183 132 174 192 208 232 233 238 333 299 271 279 270 194 38 96 107 132 124 278 102 264 334 330 231 235 229 233 242 244
205 193 180 177 161 160 165 199 145 226 236 165 137 160 164 186 92 124 172 219 153 234 242 270 284 261 245 313 203 158 113 83 80 113 214 14 255 218 199 228 212 221 232 236 249
195 183 181 176 162 156 168 145 205 229 4 158 157 174 169 132 139 179 176 189 227 293 328 304 225 250 206 218 163 175 323 344 184 212 40 350 204 286 251 245 251 253 233 240 226
184 173 177 172 160 155 154 178 228 258 243 61 134 133 193 157 109 126 146 208 212 199 284 309 135 238 159 283 337 204 302 312 317 330 23 95 232 103 222 276 272 252 246 229 213
171 163 173 171 166 162 172 199 246 213 288 277 144 160 149 154 243 212 221 226 214 189 224 237 278 322 258 322 286 137 214 61 119 108 260 92 261 274 281 298 282 245 232 232 205
157 149 163 171 184 180 201 257 258 235 299 163 198 201 183 176 191 206 218 171 223 198 216 161 287 260 338 163 60 292 132 242 246 261 276 234 278 280 346 342 318 261 236 234 224
150 133 159 164 156 195 214 236 269 260 236 205 202 170 189 179 203 187 241 220 205 141 142 155 244 74 270 32 20 72 165 58 109 335 294 290 282 175 311 306 292 278 263 253 235
152 117 165 161 164 3 194 216 299 278 239 244 224 228 203 179 184 215 232 253 171 153 180 167 147 285 350 100 285 40 46 14 334 23 51 317 276 196 280 291 272 280 272 259 253
118 98 166 175 184 203 244 275 266 277 278 193 219 220 139 182 207 211 211 3 195 175 170 182 203 248 260 169 141 221 154 111 114 181 235 283 285 252 294 296 291 274 287 276 246
142 119 153 212 203 141 128 236 283 259 252 239 229 149 144 146 217 174 249 356 154 183 223 159 146 223 276 298 346 231 195 197 244 282 302 270 293 298 294 299 303 304 285 253 231
137 132 158 177 206 180 227 266 287 302 223 244 172 226 165 124 177 208 203 165 141 155 121 234 232 202 254 239 231 274 274 244 242 271 268 292 287 285 282 297 299 307 283 232 205
163 154 140 110 129 151 187 224 264 318 287 7 348 19 146 136 210 202 173 212 179 159 170 167 214 187 260 233 230 260 261 262 256 262 257 273 272 264 277 284 290 293 261 224 215
137 133 149 161 134 167 195 171 145 332 232 278 311 327 117 36 300 15 82 106 103 134 165 211 159 200 273 317 283 269 277 279 285 263 270 279 308 327 304 308 309 303 250 232 230